This demonstration page uses our WeatherBlox Daily Observations layout. Learn more.

Left ArrowRight Arrow

39.95238, -75.16362

Hourly Observations for September 1, 2019

Temp ( °F °C ) Dew Point ( °F °C ) Humidity (%) Winds ( mph kmh ) Pressure ( in mb ) Visibility ( mi km ) Precip ( " mm )
12:54 am 00:54 Mostly Cloudy 69 20.6 51 10.6 53 53 ENE 5 7 30.28 1026 10 16 0.00 0.00
1:54 am 01:54 Mostly Cloudy 69 20.6 51 10.6 53 53 NE 7 11 30.29 1026 10 16 0.00 0.00
2:54 am 02:54 Mostly Cloudy 67 19.4 52 11.1 59 59 NNE 6 9 30.29 1026 10 16 0.00 0.00
3:54 am 03:54 Partly Cloudy 65 18.3 54 12.2 68 68 ENE 3 6 30.28 1026 10 16 0.00 0.00
4:54 am 04:54 Mostly Cloudy 65 18.3 55 12.8 70 70 NE 5 7 30.29 1026 10 16 0.00 0.00
5:54 am 05:54 Mostly Cloudy 67 19.4 56 13.3 68 68 ENE 6 9 30.29 1026 10 16 0.00 0.00
6:54 am 06:54 Mostly Cloudy 67 19.4 55 12.8 66 66 ENE 7 11 30.30 1026 10 16 0.00 0.00
7:54 am 07:54 Mostly Cloudy 68 20 55 12.8 63 63 NE 8 13 30.30 1026 10 16 0.00 0.00
8:54 am 08:54 Mostly Cloudy 70 21.1 56 13.3 61 61 ENE 8 13 30.31 1026 10 16 0.00 0.00
9:54 am 09:54 Mostly Cloudy 73 22.8 56 13.3 55 55 ENE 12 19 30.32 1027 10 16 0.00 0.00
10:54 am 10:54 Mostly Cloudy 77 25 56 13.3 48 48 E 7 11 30.33 1027 10 16 0.00 0.00
11:54 am 11:54 Mostly Cloudy 80 26.7 56 13.3 44 44 SE 8 13 30.32 1027 10 16 0.00 0.00
12:54 pm 12:54 Mostly Cloudy 82 27.8 57 13.9 42 42 VRB 5 7 30.30 1026 10 16 0.00 0.00
1:54 pm 13:54 Mostly Cloudy 82 27.8 57 13.9 42 42 NE 7 11 30.28 1025 10 16 0.00 0.00
2:54 pm 14:54 Mostly Cloudy 85 29.4 57 13.9 39 39 ESE 6 9 30.26 1025 10 16 0.00 0.00
3:54 pm 15:54 Mostly Cloudy 83 28.3 57 13.9 41 41 ENE 7 11 30.24 1024 10 16 0.00 0.00
4:54 pm 16:54 Mostly Cloudy 84 28.9 56 13.3 38 38 ESE 12 19 30.23 1024 10 16 0.00 0.00
5:54 pm 17:54 Mostly Cloudy 80 26.7 56 13.3 44 44 ESE 13 20 30.23 1024 10 16 0.00 0.00
6:54 pm 18:54 Mostly Cloudy 77 25 55 12.8 47 47 ESE 13 20 30.23 1024 10 16 0.00 0.00
7:54 pm 19:54 Mostly Cloudy 74 23.3 57 13.9 56 56 ESE 7 11 30.23 1024 10 16 0.00 0.00
8:54 pm 20:54 Mostly Cloudy 72 22.2 61 16.1 68 68 ESE 9 15 30.23 1024 10 16 0.00 0.00
9:54 pm 21:54 Mostly Cloudy 71 21.7 62 16.7 73 73 ESE 7 11 30.23 1024 10 16 0.00 0.00
10:54 pm 22:54 Partly Cloudy 70 21.1 63 17.2 79 79 SE 7 11 30.22 1023 10 16 0.00 0.00
11:54 pm 23:54 Mostly Cloudy 69 20.6 63 17.2 81 81 ESE 7 11 30.20 1023 10 16 0.00 0.00

Powered by AerisWeather